Weather History for Rocky Mount, NC

Change the Weather History Date:

Sunday, November 17, 2013

  Actual Average Record
Temperature  
Mean Temperature 62 °F -  
Max Temperature 73 °F 63 °F 79 °F (1957)
Min Temperature 52 °F 37 °F 22 °F (1967)
Degree Days  
Heating Degree Days 2    
Growing Degree Days 12 (Base 50)    
Moisture  
Dew Point 56 °F    
Average Humidity 89    
Maximum Humidity 100    
Minimum Humidity 59    
Precipitation  
Precipitation 0.10 in - - ()
Sea Level Pressure  
Sea Level Pressure 30.13 in    
Wind  
Wind Speed 3 mph (NE)    
Max Wind Speed 12 mph    
Max Gust Speed -    
Visibility 6 miles    
Events Fog , Rain    
Averages and records for this station are not official NWS values.
T = Trace of Precipitation, MM = Missing Value Source: NWS Daily Summary

Daily Weather History Graph

Daily Weather History Graph

Search for Another Location

Airport:

Trip Planner

Search our weather history database for the weather conditions in past years. The results will help you decide how hot, cold, wet, or windy it might be!

Date:

Astronomy

Nov. 17, 2013 Rise Set
Actual Time 6:49 AM EST 5:02 PM EST
Civil Twilight 6:22 AM EST 5:30 PM EST
Nautical Twilight 5:51 AM EST 6:01 PM EST
Astronomical Twilight 5:21 AM EST 6:31 PM EST
Moon 5:18 PM EST (11/17) 6:42 AM EST (11/17)
Length of Visible Light 11h 07m
Length of Day
10h 12m
Full, 100% of the Moon is Illuminated
Nov 17
Full
Nov 25
Last Quarter
Dec 2
New
Dec 9
First Quarter
Dec 17
Full

Hourly Weather History & Observations

Time (EST) Temp. Dew Point Humidity Pressure Visibility Wind Dir Wind Speed Gust Speed Precip Events Conditions
12:53 AM 54.0 °F 53.1 °F 97% 30.21 in 6.0 mi NNE 3.5 mph - N/A   Mostly Cloudy
1:22 AM 53.1 °F 52.0 °F 96% 30.21 in 2.5 mi Calm Calm - N/A   Mostly Cloudy
1:27 AM 53.1 °F 53.1 °F 100% 30.21 in 1.8 mi NNW 3.5 mph - N/A   Scattered Clouds
1:45 AM 54.0 °F 53.1 °F 97% 30.21 in 0.8 mi Calm Calm - N/A   Partly Cloudy
1:50 AM 53.6 °F 53.6 °F 100% 30.21 in 2.0 mi NNE 3.5 mph - N/A   Partly Cloudy
1:53 AM 53.1 °F 53.1 °F 100% 30.21 in 2.5 mi NNE 3.5 mph - N/A   Partly Cloudy
2:07 AM 53.1 °F 52.0 °F 96% 30.21 in 2.5 mi Calm Calm - N/A   Mostly Cloudy
2:22 AM 52.0 °F 52.0 °F 100% 30.20 in 1.0 mi Calm Calm - N/A   Overcast
2:42 AM 53.1 °F 52.0 °F 96% 30.20 in 0.5 mi Calm Calm - N/A Fog Fog
2:53 AM 54.0 °F 53.1 °F 97% 30.19 in 1.8 mi NNE 3.5 mph - N/A   Overcast
3:04 AM 53.1 °F 52.0 °F 96% 30.19 in 2.0 mi NE 3.5 mph - N/A   Overcast
3:14 AM 55.0 °F 54.0 °F 96% 30.18 in 4.0 mi NNE 3.5 mph - N/A   Overcast
3:23 AM 55.0 °F 54.0 °F 96% 30.18 in 4.0 mi NE 3.5 mph - N/A   Overcast
3:53 AM 55.9 °F 55.0 °F 97% 30.17 in 5.0 mi North 3.5 mph - N/A   Overcast
4:08 AM 55.9 °F 55.0 °F 97% 30.17 in 6.0 mi Calm Calm - N/A   Overcast
4:53 AM 57.0 °F 55.0 °F 93% 30.17 in 6.0 mi NNE 3.5 mph - N/A   Overcast
5:53 AM 57.0 °F 55.0 °F 93% 30.16 in 8.0 mi Calm Calm - N/A   Overcast
6:45 AM 53.1 °F 52.0 °F 96% 30.16 in 4.0 mi North 3.5 mph - N/A   Scattered Clouds
6:53 AM 52.0 °F 51.1 °F 97% 30.17 in 3.0 mi Calm Calm - N/A   Partly Cloudy
7:02 AM 54.0 °F 53.1 °F 97% 30.17 in 2.0 mi Calm Calm - N/A   Clear
7:14 AM 55.0 °F 53.1 °F 93% 30.18 in 4.0 mi Calm Calm - N/A   Clear
7:35 AM 55.0 °F 53.1 °F 93% 30.19 in 4.0 mi NNW 4.6 mph - N/A   Mostly Cloudy
7:53 AM 57.0 °F 55.0 °F 93% 30.19 in 4.0 mi NNW 3.5 mph - N/A   Overcast
8:32 AM 59.0 °F 55.0 °F 87% 30.20 in 6.0 mi NNE 3.5 mph - N/A   Overcast
8:45 AM 59.0 °F 55.9 °F 90% 30.20 in 7.0 mi North 4.6 mph - N/A   Overcast
8:53 AM 60.1 °F 55.9 °F 86% 30.19 in 7.0 mi NNE 3.5 mph - N/A   Overcast
9:27 AM 63.0 °F 57.0 °F 81% 30.19 in 9.0 mi Calm Calm - N/A   Scattered Clouds
9:53 AM 64.0 °F 57.0 °F 78% 30.19 in 10.0 mi ESE 4.6 mph - N/A   Clear
10:53 AM 68.0 °F 59.0 °F 73% 30.16 in 10.0 mi East 4.6 mph - N/A   Clear
11:53 AM 70.0 °F 59.0 °F 68% 30.14 in 10.0 mi SSE 4.6 mph - N/A   Clear
12:53 PM 73.0 °F 57.9 °F 59% 30.10 in 10.0 mi North - - N/A   Clear
1:53 PM 72.0 °F 57.0 °F 59% 30.06 in 10.0 mi SSW 5.8 mph - N/A   Clear
2:53 PM 73.0 °F 57.9 °F 59% 30.03 in 10.0 mi SSE 6.9 mph - N/A   Clear
3:53 PM 71.1 °F 59.0 °F 66% 30.03 in 10.0 mi South 5.8 mph - N/A   Mostly Cloudy
4:53 PM 69.1 °F 59.0 °F 70% 30.03 in 10.0 mi South 3.5 mph - N/A   Mostly Cloudy
5:53 PM 66.0 °F 59.0 °F 78% 30.03 in 10.0 mi Calm Calm - N/A   Mostly Cloudy
6:53 PM 66.0 °F 60.1 °F 81% 30.00 in 10.0 mi Calm Calm - N/A   Scattered Clouds
7:53 PM 66.0 °F 60.1 °F 81% 30.00 in 10.0 mi Calm Calm - N/A   Overcast
8:53 PM 64.9 °F 63.0 °F 93% 29.97 in 8.0 mi Calm Calm - 0.03 in Rain Light Rain
9:13 PM 66.0 °F 64.0 °F 93% 29.96 in 4.0 mi South 4.6 mph - 0.04 in Rain Light Rain
9:34 PM 66.0 °F 64.9 °F 96% 29.95 in 9.0 mi South 9.2 mph - 0.06 in Rain Light Rain
9:53 PM 66.9 °F 64.9 °F 93% 29.94 in 10.0 mi South 10.4 mph - 0.07 in Rain Light Rain
10:53 PM 66.9 °F 66.0 °F 97% 29.94 in 10.0 mi South 8.1 mph - 0.00 in   Overcast
11:53 PM 68.0 °F 66.0 °F 93% 29.92 in 7.0 mi South 11.5 mph - N/A   Overcast